Location: Владивосток
(43.1151°N, 131.8856°E)
Time: 17:45:42
(UTC+10:00)

DUCHIFAT 1 - Pass Details

Date: 29 June 2022
Orbit: 580 x 596 km, 98.0° (Epoch: 09 August)

Event Time Altitude Azimuth Distance (km) Brightness Sun altitude
Rises 02:31:21 0° 35° (NE) 2,840 ? -21.4°
Reaches altitude 10° 02:34:48 10° 65° (ENE) 1,935 ? -21.2°
Maximum altitude 02:36:33 12° 90° (E) 1,784 ? -21.1°
Drops below altitude 10° 02:38:18 10° 115° (ESE) 1,931 ? -21.0°
Enters shadow 02:38:59 - 123° (ESE) 2,059 ? -20.9°
